Weather History for Kahului, HI

Change the Weather History Date:

Saturday, April 6, 2013

  Actual Average Record
Temperature  
Mean Temperature 77 °F 74 °F  
Max Temperature 90 °F 82 °F 90 °F (2013)
Min Temperature 64 °F 66 °F 57 °F (2007)
Degree Days  
Heating Degree Days 0 0  
Month to date heating degree days 0 0  
Since 1 July heating degree days 0 0  
Cooling Degree Days 12 9  
Month to date cooling degree days 42 54  
Year to date cooling degree days 708 708  
Growing Degree Days 26 (Base 50)    
Moisture  
Dew Point 68 °F    
Average Humidity 73    
Maximum Humidity 93    
Minimum Humidity 52    
Precipitation  
Precipitation 0.00 in 0.07 in 0.87 in (1989)
Month to date precipitation T 0.42  
Year to date precipitation 6.13 7.63  
Snow  
Snow 0.00 in - - ()
Month to date snowfall 0.0  
Since 1 July snowfall 0.0  
Snow Depth 0.00 in    
Sea Level Pressure  
Sea Level Pressure 30.11 in    
Wind  
Wind Speed 7 mph (East)    
Max Wind Speed 21 mph    
Max Gust Speed 28 mph    
Visibility 10 miles    
Events      
T = Trace of Precipitation, MM = Missing Value Source: NWS Daily Summary

Daily Weather History Graph

Daily Weather History Graph

Search for Another Location

Airport:

Trip Planner

Search our weather history database for the weather conditions in past years. The results will help you decide how hot, cold, wet, or windy it might be!

Date:

Astronomy

Apr. 06, 2013 Rise Set
Actual Time 6:14 AM HST 6:42 PM HST
Civil Twilight 5:51 AM HST 7:04 PM HST
Nautical Twilight 5:25 AM HST 7:30 PM HST
Astronomical Twilight 4:59 AM HST 7:57 PM HST
Moon 3:38 AM HST (4/6) 3:44 PM HST (4/6)
Length of Visible Light 13h 12m
Length of Day
12h 27m
Waning Crescent, 13% of the Moon is Illuminated
Apr 6
Waning Crescent
Apr 9
New
Apr 18
First Quarter
Apr 25
Full
May 2
Last Quarter

Hourly Weather History & Observations

Time (HST) Temp. Heat Index Dew Point Humidity Pressure Visibility Wind Dir Wind Speed Gust Speed Precip Events Conditions
1:54 AM 68.0 °F - 64.0 °F 87% 30.11 in 10.0 mi South 3.5 mph - N/A   Clear
2:54 AM 66.0 °F - 64.0 °F 93% 30.09 in 10.0 mi SE 9.2 mph - N/A   Clear
3:54 AM 64.0 °F - 63.0 °F 96% 30.09 in 10.0 mi Calm Calm - N/A   Clear
4:54 AM 64.9 °F - 63.0 °F 93% 30.10 in 10.0 mi SSE 5.8 mph - N/A   Clear
5:54 AM 64.9 °F - 63.0 °F 93% 30.11 in 10.0 mi SSE 4.6 mph - N/A   Clear
6:54 AM 66.0 °F - 64.0 °F 93% 30.12 in 10.0 mi SE 6.9 mph - N/A   Partly Cloudy
7:54 AM 73.0 °F - 68.0 °F 84% 30.14 in 10.0 mi ESE 4.6 mph - N/A   Partly Cloudy
8:54 AM 78.1 °F - 69.1 °F 74% 30.16 in 10.0 mi Calm Calm - N/A   Partly Cloudy
9:54 AM 82.0 °F 85.5 °F 69.1 °F 65% 30.16 in 10.0 mi NNW 6.9 mph - N/A   Partly Cloudy
10:54 AM 84.0 °F 87.8 °F 69.1 °F 61% 30.14 in 10.0 mi North 5.8 mph - N/A   Partly Cloudy
11:54 AM 87.1 °F 92.8 °F 71.1 °F 59% 30.12 in 10.0 mi ENE 9.2 mph 18.4 mph N/A   Scattered Clouds
12:54 PM 88.0 °F 92.9 °F 70.0 °F 55% 30.10 in 10.0 mi ENE 15.0 mph - N/A   Scattered Clouds
1:54 PM 89.1 °F 94.1 °F 70.0 °F 53% 30.07 in 10.0 mi NE 13.8 mph 21.9 mph N/A   Scattered Clouds
2:54 PM 88.0 °F 93.8 °F 71.1 °F 57% 30.05 in 10.0 mi ENE 16.1 mph 24.2 mph N/A   Partly Cloudy
3:54 PM 87.1 °F 92.8 °F 71.1 °F 59% 30.05 in 10.0 mi East 15.0 mph 23.0 mph N/A   Scattered Clouds
4:54 PM 84.0 °F 86.5 °F 66.9 °F 56% 30.06 in 10.0 mi ENE 15.0 mph 24.2 mph N/A   Scattered Clouds
5:54 PM 81.0 °F 83.8 °F 68.0 °F 65% 30.07 in 10.0 mi ENE 11.5 mph - N/A   Scattered Clouds
6:54 PM 78.1 °F - 68.0 °F 71% 30.10 in 10.0 mi East 9.2 mph - N/A   Clear
7:54 PM 75.0 °F - 68.0 °F 79% 30.13 in 10.0 mi East 8.1 mph - N/A   Clear
8:54 PM 73.0 °F - 68.0 °F 84% 30.14 in 10.0 mi East 4.6 mph - N/A   Clear
9:54 PM 72.0 °F - 69.1 °F 91% 30.16 in 10.0 mi Calm Calm - N/A   Clear
10:54 PM 70.0 °F - 68.0 °F 93% 30.16 in 10.0 mi SE 4.6 mph - N/A   Clear
11:54 PM 69.1 °F - 68.0 °F 96% 30.16 in 10.0 mi SE 4.6 mph - N/A   Clear